Location: Newark
(44.4156°N, 12.1972°E)
Time: 07:19:54
(UTC+00:00)

STARLINK-1112 - Pass Details

Date: 06 February 2020
Orbit: 548 x 551 km, 53.0° (Epoch: 22 February)

Event Time Altitude Azimuth Distance (km) Brightness Sun altitude
Rises 16:51:13 0° 292° (WNW) 2,720 8.1 -5.0°
Reaches altitude 10° 16:54:02 10° 273° (W) 1,823 7.7 -5.5°
Maximum altitude 16:56:47 17° 231° (SW) 1,407 6.8 -5.9°
Drops below altitude 10° 16:59:33 10° 189° (S) 1,816 6.6 -6.4°
Sets 17:02:21 0° 169° (S) 2,705 7.2 -6.9°
